#timestamp,LO_Frequency,Hit,StdDev 
1513231215.1,286047000.7,P
1513231216.0,286047000.7,N
1513231235.8,286046998.3,N
1513231255.6,286046994.9,Y
1513231275.5,286046997.1,P
1513231295.3,286046995.9,P
1513231315.2,286046997.0,N
1513231335.9,286046997.3,N
1513231355.7,286046997.9,N
1513231375.6,286046995.7,Y
1513231395.4,286046997.4,P
1513231415.2,286046996.7,P
1513231435.1,286046997.4,P
1513231436.0,286046997.4,Y
1513231455.8,286047001.0,P
1513231476.6,286046998.1,N
1513231495.5,286046998.4,N
1513231515.4,286047000.5,N
1513231535.2,286046998.2,N
1513231555.0,286046999.1,N
1513231555.9,286046999.1,N
1513231575.8,286046996.7,N
1513231595.6,286046997.6,N
1513231615.5,286046995.5,Y
1513231635.3,286046997.5,P
1513231655.1,286046996.0,P
1513231675.9,286046995.7,P
1513231695.7,286046999.3,N
1513231715.5,286046998.4,N
1513231735.4,286046998.5,N
1513231755.2,286046998.5,N
1513231775.1,286047000.0,N
1513231776.0,286047000.0,N
1513231795.8,286046998.1,N
1513231815.6,286046998.6,N
1513231835.5,286046996.8,N
1513231855.3,286046997.3,N
1513231875.2,286046997.0,N
1513231895.9,286046997.5,N
1513231915.7,286046996.4,N
1513231935.6,286046995.9,Y
1513231955.4,286046999.2,P
1513231975.2,286046999.2,N
1513231995.1,286046999.0,N
1513231996.0,286046999.0,N
1513232015.8,286047001.1,N
1513232035.7,286047001.2,N
1513232055.5,286047000.4,N
1513232075.3,286046998.3,N
1513232095.2,286047000.0,N
1513232115.0,286047002.8,N
1513232115.9,286047002.8,N
1513232135.8,286047000.3,N
1513232155.6,286046998.2,N
1513232175.4,286046999.0,N
1513232195.3,286046996.6,N
1513232215.1,286046996.5,N
1513232235.8,286046998.1,N
1513232255.7,286046999.2,N
1513232275.5,286046997.4,N
1513232295.4,286046997.6,N
1513232315.2,286046997.7,N
1513232335.0,286046997.6,N
1513232335.9,286046997.6,N
1513232355.8,286046995.1,N
1513232375.6,286046996.7,N
1513232395.4,286046996.9,N
1513232415.3,286046998.3,N
1513232435.1,286046999.1,N
1513232455.9,286046997.1,N
1513232475.7,286046997.9,N
1513232495.5,286046995.9,N
1513232515.4,286046996.0,N
1513232535.2,286046996.1,N
1513232555.0,286046997.4,N
1513232556.0,286046997.4,N
1513232575.8,286046997.9,N
1513232595.6,286046993.3,Y
1513232615.5,286046997.2,P
1513232635.3,286046999.1,N
1513232655.1,286046995.4,P
1513232675.9,286046997.6,N
1513232695.7,286046997.3,N
1513232715.6,286046999.4,N
1513232735.4,286046999.3,N
1513232755.2,286046999.1,N
1513232775.1,286046999.4,N
1513232776.0,286046999.4,N
1513232795.8,286046998.3,N
1513232815.6,286046998.2,N
1513232835.5,286047001.1,N
1513232855.3,286047001.2,N
1513232875.2,286046998.3,N
1513232895.9,286046998.7,N
1513232915.7,286046997.0,N
1513232935.6,286046996.9,N
1513232955.4,286046995.0,Y
1513232975.2,286046996.7,P
1513232995.1,286046997.2,P
1513232996.0,286046997.2,P
1513233015.8,286046996.8,Y
1513233035.7,286047000.8,P
1513233055.5,286047000.9,N
1513233075.3,286047000.5,N
1513233095.2,286047000.3,N
1513233115.0,286047002.7,N
1513233115.9,286047002.7,N
1513233135.8,286047002.5,N
1513233155.6,286047000.0,N
1513233175.4,286046998.5,N
1513233195.3,286047000.3,N
1513233215.1,286047001.0,N
1513233235.8,286047000.4,N
1513233255.7,286047002.7,N
1513233275.5,286047000.9,N
1513233295.4,286047000.9,N
1513233315.2,286046999.3,N
1513233335.0,286047000.5,N
1513233366.0,286046998.2,E
1513233375.9,286046998.6,N
1513233395.7,286047002.8,P
1513233415.6,286047000.6,N
1513233435.4,286047000.1,N
1513233455.2,286046999.8,N
1513233475.1,286046999.7,N
1513233476.0,286046999.7,N
1513233495.8,286047000.8,N
1513233515.7,286047002.7,N
1513233535.5,286047002.4,N
1513233555.3,286047002.4,N
1513233575.2,286047003.6,N
1513233595.0,286047004.3,N
1513233595.9,286047004.3,N
1513233615.7,286046999.8,N
1513233635.6,286047002.6,N
1513233655.4,286047002.5,N
1513233675.3,286047002.5,N
1513233695.1,286047001.6,N
1513233696.0,286047001.6,N
1513233715.8,286047000.4,N
1513233735.7,286046999.9,N
1513233755.5,286047000.0,N
1513233775.3,286047000.1,N
1513233795.2,286046999.8,N
1513233815.0,286046999.8,N
1513233815.9,286046999.8,N
1513233835.8,286046999.7,N
1513233855.6,286047000.0,N
1513233875.4,286047000.3,N
1513233895.3,286047002.5,N
1513233915.1,286047002.0,N
1513233935.9,286047001.5,N
1513233955.7,286047002.6,N
1513233975.5,286047001.4,N
1513233995.4,286047001.5,N
1513234015.2,286047004.0,N
1513234035.0,286047002.4,N
1513234035.9,286047002.4,N
1513234055.8,286047002.0,N
1513234075.6,286047004.3,N
1513234095.5,286047002.1,N
1513234115.3,286047002.8,N
1513234135.1,286047001.7,N
1513234155.9,286047002.1,N
1513234175.7,286046999.7,N
1513234195.5,286047004.0,Y
1513234215.4,286046999.7,P
1513234235.2,286047000.5,N
1513234255.1,286047000.5,N
1513234256.0,286047000.5,N
1513234275.8,286047000.7,N
1513234295.6,286047001.0,N
1513234315.5,286046998.6,N
1513234335.3,286047001.1,N
1513234355.1,286046998.1,N
1513234375.9,286046998.8,N
1513234395.7,286046997.0,N
1513234415.6,286046996.6,N
1513234435.4,286046999.3,N
1513234485.3,286046998.7,E
1513234495.2,286046996.5,N
1513234515.0,286046999.6,P
1513234515.9,286046999.6,N
1513234535.8,286046999.0,N
1513234555.6,286046999.5,N
1513234575.4,286046997.8,N
1513234595.3,286046999.6,N
1513234615.1,286046997.8,N
1513234635.9,286046996.2,Y
1513234655.7,286046995.9,P
1513234675.5,286046996.3,N
1513234695.4,286046995.3,P
1513234715.2,286046995.4,Y
1513234735.1,286046998.2,P
1513234736.0,286046998.2,N
1513234755.8,286047000.1,N
1513234775.6,286047002.2,N
1513234795.5,286047002.5,N
